TimePST,TemperatureF,Dew PointF,Humidity,Sea Level PressureIn,VisibilityMPH,Wind Direction,Wind SpeedMPH,Gust SpeedMPH,PrecipitationIn,Events,Conditions,WindDirDegrees,DateUTC
12:56 AM,51.1,48.0,89,29.61,6.0,East,13.8,-,0.09,Rain,Rain,90,2008-01-27 08:56:00
1:56 AM,51.1,48.9,92,29.61,10.0,ESE,10.4,-,0.04,Rain,Light Rain,110,2008-01-27 09:56:00
2:29 AM,51.8,48.2,88,29.61,10.0,SSE,6.9,-,0.00,Rain,Light Rain,150,2008-01-27 10:29:00
2:56 AM,51.1,48.9,92,29.62,10.0,ESE,8.1,-,0.02,Rain,Light Rain,120,2008-01-27 10:56:00
3:43 AM,53.6,46.4,77,29.61,10.0,SSE,24.2,32.2,0.00,,Mostly Cloudy,160,2008-01-27 11:43:00
3:56 AM,53.1,46.9,80,29.61,10.0,South,21.9,34.5,0.00,,Overcast,170,2008-01-27 11:56:00
4:56 AM,53.1,46.0,77,29.61,10.0,SSE,21.9,29.9,N/A,,Overcast,160,2008-01-27 12:56:00
5:56 AM,52.0,46.9,83,29.62,10.0,South,21.9,26.5,0.01,,Mostly Cloudy,170,2008-01-27 13:56:00
6:13 AM,53.6,44.6,72,29.62,10.0,South,25.3,39.1,N/A,,Mostly Cloudy,170,2008-01-27 14:13:00
6:56 AM,52.0,44.1,74,29.64,10.0,SSE,12.7,20.7,N/A,,Mostly Cloudy,160,2008-01-27 14:56:00
7:56 AM,52.0,44.1,74,29.64,10.0,East,3.5,-,N/A,,Overcast,100,2008-01-27 15:56:00
8:56 AM,51.1,46.0,83,29.64,10.0,East,6.9,-,0.00,,Overcast,90,2008-01-27 16:56:00
9:56 AM,52.0,46.0,80,29.63,10.0,East,6.9,-,N/A,,Mostly Cloudy,90,2008-01-27 17:56:00
10:56 AM,51.8,46.4,82,29.60,10.0,East,8.1,-,N/A,Rain,Light Rain,100,2008-01-27 18:56:00
11:56 AM,55.4,44.6,67,29.56,10.0,SE,11.5,-,N/A,,Mostly Cloudy,130,2008-01-27 19:56:00
12:56 PM,55.9,45.0,67,29.53,10.0,SSE,17.3,28.8,N/A,,Overcast,150,2008-01-27 20:56:00
1:56 PM,54.0,46.0,75,29.51,8.0,South,18.4,27.6,0.00,Rain,Light Rain,180,2008-01-27 21:56:00
3:56 PM,53.1,48.0,83,29.53,6.0,South,17.3,26.5,0.00,Rain,Light Rain,190,2008-01-27 23:56:00
4:56 PM,53.1,46.9,80,29.53,9.0,South,15.0,-,0.00,,Overcast,180,2008-01-28 00:56:00
5:56 PM,53.1,46.9,80,29.52,8.0,South,24.2,38.0,0.00,Rain,Light Rain,180,2008-01-28 01:56:00
6:56 PM,52.0,46.9,83,29.55,5.0,South,20.7,35.7,0.00,Rain,Rain,180,2008-01-28 02:56:00
7:22 PM,51.8,48.2,88,29.57,2.5,SSW,21.9,38.0,0.02,Rain,Rain,200,2008-01-28 03:22:00
7:36 PM,51.8,48.2,88,29.58,4.0,SW,27.6,35.7,0.04,Rain,Light Rain,220,2008-01-28 03:36:00
7:56 PM,48.9,46.0,90,29.61,6.0,WSW,20.7,28.8,0.07,Rain,Rain,240,2008-01-28 03:56:00
8:56 PM,46.0,43.0,89,29.66,10.0,West,19.6,33.4,0.08,Rain,Light Rain,280,2008-01-28 04:56:00
9:56 PM,46.0,43.0,89,29.71,10.0,WNW,16.1,24.2,0.00,,Overcast,290,2008-01-28 05:56:00
10:56 PM,46.0,43.0,89,29.75,10.0,WNW,10.4,-,0.00,,Overcast,290,2008-01-28 06:56:00
11:56 PM,46.9,37.0,68,29.76,10.0,West,11.5,19.6,N/A,,Mostly Cloudy,270,2008-01-28 07:56:00